Nellis AFB, NV

10:58 AM PDT on October 17, 2017 (GMT -0700)
Nellis Air Force Base

Weather History for KLSV - June, 2014

Change the Weather History Date:

Saturday, June 7, 2014

  Actual Average Record
Temperature  
Mean Temperature 86 °F -  
Max Temperature 103 °F 94 °F 107 °F (2001)
Min Temperature 71 °F 69 °F 58 °F (2011)
Cooling Degree Days 22    
Growing Degree Days 36 (Base 50)    
Moisture  
Dew Point 19 °F    
Average Humidity 8    
Maximum Humidity 16    
Minimum Humidity 4    
Precipitation  
Precipitation 0.00 in - - ()
Sea Level Pressure  
Sea Level Pressure 29.60 in    
Wind  
Wind Speed 6 mph (SSW)    
Max Wind Speed 17 mph    
Max Gust Speed -    
Visibility 10 miles    
Events      
Averages and records for this station are not official NWS values.
T = Trace of Precipitation, MM = Missing Value Source: NWS Daily Summary

Daily Weather History Graph

Daily Weather History Graph

Search for Another Location

Airport or City:

Trip Planner

Search our weather history database for the weather conditions in past years. The results will help you decide how hot, cold, wet, or windy it might be!

Date:

Astronomy

Jun. 07, 2014 Rise Set
Actual Time 5:22 AM PDT 7:55 PM PDT
Civil Twilight 4:52 AM PDT 8:25 PM PDT
Nautical Twilight 4:15 AM PDT 9:03 PM PDT
Astronomical Twilight 3:33 AM PDT 9:44 PM PDT
Moon 2:26 PM PDT (6/7) 1:36 AM PDT (6/7)
Length of Visible Light 15h 33m
Length of Day
14h 33m
Waxing Gibbous, 69% of the Moon is Illuminated
Jun 7
Waxing Gibbous
Jun 12
Full
Jun 19
Last Quarter
Jun 27
New
Jul 5
First Quarter

Hourly Weather History & Observations

Time (PDT) Temp. Dew Point Humidity Pressure Visibility Wind Dir Wind Speed Gust Speed Precip Events Conditions
12:58 AM 83.8 °F 19.8 °F 9% 29.57 in 10.0 mi SSW 8.1 mph - N/A   Clear
1:58 AM 79.7 °F 25.2 °F 13% 29.58 in 10.0 mi SSW 4.6 mph - N/A   Clear
2:58 AM 77.5 °F 17.2 °F 10% 29.58 in 10.0 mi North 2.3 mph - N/A   Clear
3:58 AM 76.5 °F 18.7 °F 11% 29.60 in 10.0 mi NNW 2.3 mph - N/A   Clear
4:58 AM 71.6 °F 23.0 °F 16% 29.62 in 10.0 mi ENE 4.6 mph - N/A   Clear
5:58 AM 74.1 °F 22.5 °F 14% 29.63 in 10.0 mi Calm Calm - N/A   Clear
6:58 AM 74.8 °F 21.6 °F 14% 29.65 in 10.0 mi SW 6.9 mph - N/A   Clear
7:58 AM 81.1 °F 22.5 °F 11% 29.66 in 10.0 mi East 2.3 mph - N/A   Clear
8:58 AM 86.4 °F 26.6 °F 11% 29.66 in 10.0 mi SW 4.6 mph - N/A   Clear
9:58 AM 92.1 °F 16.5 °F 6% 29.65 in 10.0 mi East 6.9 mph - N/A   Clear
10:58 AM 95.2 °F 21.0 °F 7% 29.65 in 10.0 mi Variable 3.5 mph - N/A   Clear
11:58 AM 97.2 °F 20.3 °F 6% 29.63 in 10.0 mi SSE 2.3 mph - N/A   Clear
12:58 PM 99.0 °F 21.7 °F 6% 29.61 in 10.0 mi Variable 4.6 mph - N/A   Clear
1:58 PM 100.0 °F 22.5 °F 6% 29.59 in 10.0 mi Variable 3.5 mph - N/A   Clear
2:58 PM 102.0 °F 20.5 °F 5% 29.57 in 10.0 mi South 5.8 mph - N/A   Clear
3:58 PM 102.4 °F 15.6 °F 4% 29.55 in 10.0 mi West 10.4 mph - N/A   Clear
4:58 PM 102.7 °F 14.9 °F 4% 29.55 in 10.0 mi SW 6.9 mph - N/A   Clear
5:58 PM 101.5 °F 14.2 °F 4% 29.53 in 10.0 mi SW 6.9 mph - N/A   Clear
6:58 PM 100.4 °F 13.3 °F 4% 29.55 in 10.0 mi SSW 8.1 mph - N/A   Clear
7:58 PM 98.8 °F 12.0 °F 4% 29.54 in 10.0 mi South 5.8 mph - N/A   Clear
8:58 PM 96.1 °F 19.6 °F 6% 29.55 in 10.0 mi South 17.3 mph - N/A   Clear
9:58 PM 94.6 °F 14.2 °F 5% 29.57 in 10.0 mi South 13.8 mph - N/A   Clear
10:58 PM 91.4 °F 15.8 °F 6% 29.67 in 10.0 mi SSE 4.6 mph - N/A   Clear
11:58 PM 88.2 °F 14.4 °F 6% 29.59 in 10.0 mi North 5.8 mph - N/A   Clear